TimeCDT,TemperatureF,Dew PointF,Humidity,Sea Level PressureIn,VisibilityMPH,Wind Direction,Wind SpeedMPH,Gust SpeedMPH,PrecipitationIn,Events,Conditions,WindDirDegrees,DateUTC
12:53 AM,80.1,60.1,50,30.04,10.0,South,6.9,-,N/A,,Clear,170,2013-09-11 05:53:00
1:53 AM,79.0,61.0,54,30.05,10.0,South,4.6,-,N/A,,Clear,180,2013-09-11 06:53:00
2:53 AM,78.1,60.1,54,30.06,10.0,Variable,3.5,-,N/A,,Clear,0,2013-09-11 07:53:00
3:53 AM,75.9,59.0,56,30.06,10.0,Variable,4.6,-,N/A,,Clear,0,2013-09-11 08:53:00
4:53 AM,75.9,57.9,54,30.05,10.0,Variable,3.5,-,N/A,,Clear,0,2013-09-11 09:53:00
5:53 AM,73.0,57.9,59,30.07,10.0,Calm,Calm,-,N/A,,Clear,0,2013-09-11 10:53:00
6:53 AM,73.0,57.9,59,30.08,10.0,South,3.5,-,N/A,,Clear,180,2013-09-11 11:53:00
7:53 AM,73.9,57.9,57,30.09,10.0,Calm,Calm,-,N/A,,Clear,0,2013-09-11 12:53:00
8:53 AM,77.0,59.0,54,30.10,10.0,South,3.5,-,N/A,,Clear,190,2013-09-11 13:53:00
9:53 AM,81.0,61.0,50,30.11,10.0,SSW,4.6,-,N/A,,Clear,210,2013-09-11 14:53:00
10:53 AM,86.0,62.1,44,30.11,10.0,Variable,5.8,-,N/A,,Clear,0,2013-09-11 15:53:00
11:53 AM,90.0,62.1,39,30.09,10.0,South,8.1,-,N/A,,Clear,190,2013-09-11 16:53:00
12:53 PM,91.9,60.1,34,30.08,10.0,SSW,5.8,-,N/A,,Partly Cloudy,210,2013-09-11 17:53:00
1:53 PM,91.9,59.0,33,30.06,10.0,Variable,6.9,-,N/A,,Partly Cloudy,0,2013-09-11 18:53:00
2:53 PM,93.0,57.9,31,30.04,10.0,SSW,3.5,-,N/A,,Clear,200,2013-09-11 19:53:00
3:53 PM,93.9,57.0,29,30.02,10.0,Variable,6.9,-,N/A,,Clear,0,2013-09-11 20:53:00
4:53 PM,93.9,57.9,30,30.00,10.0,South,8.1,-,N/A,,Scattered Clouds,170,2013-09-11 21:53:00
5:53 PM,93.0,59.0,32,29.99,10.0,South,5.8,-,N/A,,Mostly Cloudy,170,2013-09-11 22:53:00
6:53 PM,91.0,60.1,35,30.00,10.0,South,8.1,-,N/A,,Clear,170,2013-09-11 23:53:00
7:53 PM,88.0,59.0,37,30.01,10.0,Calm,Calm,-,N/A,,Clear,0,2013-09-12 00:53:00
8:53 PM,82.0,61.0,49,30.03,10.0,SSE,3.5,-,N/A,,Clear,160,2013-09-12 01:53:00
9:53 PM,79.0,61.0,54,30.05,10.0,Calm,Calm,-,N/A,,Clear,0,2013-09-12 02:53:00
10:53 PM,75.9,63.0,64,30.04,10.0,Calm,Calm,-,N/A,,Clear,0,2013-09-12 03:53:00
11:53 PM,77.0,62.1,60,30.04,10.0,Calm,Calm,-,N/A,,Clear,0,2013-09-12 04:53:00